Gainesville, GA

12:12 PM EDT on July 21, 2017 (GMT -0400)
Gilmer Memorial

Weather History for KGVL - January, 2012

Change the Weather History Date:

Monday, January 2, 2012

  Actual Average Record
Temperature  
Mean Temperature 35 °F 41 °F  
Max Temperature 42 °F 50 °F 72 °F (1952)
Min Temperature 25 °F 33 °F 14 °F (1940)
Degree Days  
Heating Degree Days 30 24  
Month to date heating degree days 48  
Since 1 July heating degree days 1244  
Moisture  
Dew Point 13 °F    
Average Humidity 41    
Maximum Humidity 66    
Minimum Humidity 25    
Precipitation  
Precipitation 0.00 in 0.12 in 1.95 in (2017)
Month to date precipitation 0.24  
Year to date precipitation 0.24  
Snow  
Snow 0.00 in - - ()
Since 1 July snowfall  
Snow Depth -    
Sea Level Pressure  
Sea Level Pressure 30.15 in    
Wind  
Wind Speed 14 mph (NW)    
Max Wind Speed 23 mph    
Max Gust Speed 33 mph    
Visibility 10 miles    
Events      
T = Trace of Precipitation, MM = Missing Value Source: NWS Daily Summary

Daily Weather History Graph

Daily Weather History Graph

Search for Another Location

Airport or City:

Trip Planner

Search our weather history database for the weather conditions in past years. The results will help you decide how hot, cold, wet, or windy it might be!

Date:

Astronomy

Jan. 02, 2012 Rise Set
Actual Time 7:41 AM EST 5:36 PM EST
Civil Twilight 7:13 AM EST 6:04 PM EST
Nautical Twilight 6:42 AM EST 6:35 PM EST
Astronomical Twilight 6:12 AM EST 7:06 PM EST
Moon 12:46 PM EST (1/2) 1:40 AM EST (1/2)
Length of Visible Light 10h 50m
Length of Day
9h 55m
Waxing Gibbous, 63% of the Moon is Illuminated
Jan 2
Waxing Gibbous
Jan 9
Full
Jan 16
Last Quarter
Jan 23
New
Jan 30
First Quarter

Hourly Weather History & Observations

Time (EST) Temp. Windchill Dew Point Humidity Pressure Visibility Wind Dir Wind Speed Gust Speed Precip Events Conditions
12:53 AM 42.1 °F 36.1 °F 28.0 °F 58% 30.14 in 10.0 mi WNW 10.4 mph - N/A   Clear
1:53 AM 42.1 °F 35.7 °F 23.0 °F 47% 30.12 in 10.0 mi NW 11.5 mph - N/A   Clear
2:53 AM 41.0 °F 33.5 °F 21.0 °F 45% 30.12 in 10.0 mi NW 13.8 mph 26.5 mph N/A   Clear
3:53 AM 39.0 °F 31.0 °F 18.0 °F 43% 30.12 in 10.0 mi NW 13.8 mph 23.0 mph N/A   Clear
4:53 AM 37.0 °F 29.3 °F 17.1 °F 44% 30.13 in 10.0 mi NW 11.5 mph - N/A   Clear
5:53 AM 36.0 °F 26.3 °F 15.1 °F 43% 30.13 in 10.0 mi NW 16.1 mph 24.2 mph N/A   Clear
6:53 AM 35.1 °F 26.4 °F 12.9 °F 40% 30.14 in 10.0 mi NW 12.7 mph 21.9 mph N/A   Clear
7:53 AM 33.1 °F 26.9 °F 16.0 °F 50% 30.17 in 10.0 mi WNW 6.9 mph - N/A   Clear
8:53 AM 35.1 °F 27.4 °F 12.9 °F 40% 30.18 in 10.0 mi NW 10.4 mph - N/A   Clear
10:53 AM 39.0 °F 29.9 °F 12.0 °F 33% 30.18 in 10.0 mi WNW 17.3 mph 28.8 mph N/A   Clear
11:53 AM 41.0 °F 32.8 °F 12.9 °F 32% 30.15 in 10.0 mi West 16.1 mph 24.2 mph N/A   Clear
12:53 PM 41.0 °F 31.1 °F 10.0 °F 28% 30.12 in 10.0 mi WNW 23.0 mph 33.4 mph N/A   Clear
3:53 PM 42.1 °F 33.3 °F 8.1 °F 25% 30.06 in 10.0 mi WNW 19.6 mph 27.6 mph N/A   Clear
4:53 PM 39.9 °F 32.1 °F 7.0 °F 26% 30.06 in 10.0 mi WNW 13.8 mph 21.9 mph N/A   Clear
5:53 PM 37.0 °F 27.7 °F 7.0 °F 29% 30.09 in 10.0 mi NW 16.1 mph 26.5 mph N/A   Partly Cloudy
6:53 PM 35.1 °F 23.8 °F 8.1 °F 33% 30.12 in 10.0 mi NW 20.7 mph 32.2 mph N/A   Scattered Clouds
7:53 PM 32.0 °F 19.5 °F 14.0 °F 48% 30.16 in 10.0 mi NNW 21.9 mph 29.9 mph N/A   Overcast
8:53 PM 28.9 °F 16.9 °F 8.1 °F 41% 30.19 in 10.0 mi NNW 17.3 mph 31.1 mph N/A   Clear
9:53 PM 28.0 °F 17.5 °F 7.0 °F 41% 30.22 in 10.0 mi NW 12.7 mph 20.7 mph N/A   Mostly Cloudy
10:53 PM 28.0 °F 16.5 °F 10.0 °F 47% 30.22 in 10.0 mi NNW 15.0 mph 25.3 mph N/A   Overcast
11:53 PM 25.0 °F 13.6 °F 15.1 °F 66% 30.23 in 10.0 mi WNW 12.7 mph 21.9 mph 0.00 in   Partly Cloudy